^^
Saratoga-Weather Station Historical Data
Daily Summary for February 16, 2021 Units:  English    Metric   Both
Daily Weekly Monthly Yearly Custom
  High: Low: Average:
Temperature: 72.7 °F 56.7 °F 63.1 °F
Dew Point: 63.5 °F 51.6 °F 56.8 °F
Humidity: 91% 72% 80%
Wind Speed: 12.1mph 0mph 4mph
Wind Gust: 18mph - -
Wind- - West
Pressure: 30.1 in 29.8 in -
Precipitation: 0.09 in    
Historical Graphs
 
 
Tabular Data for February 16, 2021
Time Temperature Dew Point Pressure Wind Wind Speed Wind Gust Humidity Rainfall Rate (Hourly) solar
00:02 71.4 °F 63.1 °F 29.8 in WSW 2.9 mph 8 mph 75% 0 in 0 W/m2
00:07 72.1 °F 63.3 °F 29.8 in West 2.9 mph 8 mph 74% 0 in 0 W/m2
00:12 72.5 °F 63.3 °F 29.8 in WNW 2 mph 7 mph 73% 0 in 0 W/m2
00:17 72.7 °F 63.5 °F 29.8 in West 8.9 mph 11 mph 73% 0 in 0 W/m2
00:22 72.3 °F 63.5 °F 29.8 in West 6.9 mph 7 mph 74% 0 in 0 W/m2
00:27 72.1 °F 63.3 °F 29.8 in NW 4 mph 6 mph 74% 0 in 0 W/m2
00:32 71.8 °F 63 °F 29.8 in WNW 4 mph 6 mph 74% 0 in 0 W/m2
00:37 71.4 °F 63.1 °F 29.8 in WNW 4.9 mph 9 mph 75% 0 in 0 W/m2
00:42 71.1 °F 63.1 °F 29.8 in NW 6.9 mph 7 mph 76% 0 in 0 W/m2
00:47 70.5 °F 62.6 °F 29.9 in WNW 4 mph 9 mph 76% 0 in 0 W/m2
00:52 70.3 °F 62.8 °F 29.9 in WNW 6.9 mph 10 mph 77% 0 in 0 W/m2
00:57 70.2 °F 62.6 °F 29.9 in WNW 6.9 mph 8 mph 77% 0 in 0 W/m2
01:02 70 °F 62.4 °F 29.9 in WNW 4 mph 8 mph 77% 0 in 0 W/m2
01:07 70 °F 62.4 °F 29.9 in West 4 mph 12 mph 77% 0 in 0 W/m2
01:12 69.6 °F 62.1 °F 29.9 in West 8.9 mph 11 mph 77% 0 in 0 W/m2
01:17 69.6 °F 62.1 °F 29.9 in West 8.1 mph 8 mph 77% 0 in 0 W/m2
01:22 69.4 °F 62.2 °F 29.9 in WNW 6 mph 11 mph 78% 0 in 0 W/m2
01:27 69.3 °F 62.1 °F 29.9 in SW 4.9 mph 10 mph 78% 0 in 0 W/m2
01:32 68.9 °F 62.1 °F 29.9 in SW 4.9 mph 10 mph 79% 0 in 0 W/m2
01:37 68.5 °F 61.7 °F 29.9 in West 8.1 mph 10 mph 79% 0 in 0 W/m2
01:42 68.5 °F 61.7 °F 29.9 in WSW 10.1 mph 12 mph 79% 0 in 0 W/m2
01:47 68.4 °F 60.8 °F 29.9 in West 8.9 mph 11 mph 77% 0 in 0 W/m2
01:52 68.4 °F 60.8 °F 29.9 in NW 8.9 mph 10 mph 77% 0 in 0 W/m2
01:57 68.2 °F 60.3 °F 29.9 in NW 4.9 mph 12 mph 76% 0 in 0 W/m2
02:02 68 °F 60.1 °F 29.9 in WNW 8.1 mph 9 mph 76% 0 in 0 W/m2
02:07 67.6 °F 59.7 °F 29.9 in WSW 4.9 mph 11 mph 76% 0 in 0 W/m2
02:12 67.5 °F 60.1 °F 29.9 in WNW 6.9 mph 12 mph 77% 0 in 0 W/m2
02:17 67.3 °F 59.9 °F 29.9 in West 6 mph 9 mph 77% 0 in 0 W/m2
02:22 66.9 °F 59.5 °F 29.9 in WNW 6.9 mph 12 mph 77% 0 in 0 W/m2
02:27 66.7 °F 59.4 °F 29.9 in West 6 mph 9 mph 77% 0 in 0 W/m2
02:32 66.6 °F 59.2 °F 29.9 in WSW 6.9 mph 13 mph 77% 0 in 0 W/m2
02:37 66.4 °F 59 °F 29.9 in WNW 8.1 mph 15 mph 77% 0 in 0 W/m2
02:42 66.2 °F 58.8 °F 29.9 in WSW 10.1 mph 11 mph 77% 0 in 0 W/m2
02:47 65.8 °F 58.5 °F 29.9 in West 6 mph 12 mph 77% 0 in 0 W/m2
02:52 65.7 °F 58.3 °F 29.9 in West 6 mph 11 mph 77% 0 in 0 W/m2
02:57 65.5 °F 58.1 °F 29.9 in West 10.1 mph 12 mph 77% 0 in 0 W/m2
03:02 65.1 °F 57.7 °F 29.9 in WNW 4.9 mph 8 mph 77% 0 in 0 W/m2
03:07 64.9 °F 57.6 °F 29.9 in West 8.1 mph 11 mph 77% 0 in 0 W/m2
03:12 64.8 °F 57.4 °F 29.9 in WNW 4 mph 8 mph 77% 0 in 0 W/m2
03:17 64.6 °F 57.2 °F 29.9 in West 8.1 mph 9 mph 77% 0 in 0 W/m2
03:22 64.4 °F 57 °F 29.9 in West 2.9 mph 7 mph 77% 0 in 0 W/m2
03:27 64.2 °F 56.8 °F 29.9 in West 2.9 mph 5 mph 77% 0 in 0 W/m2
03:32 64 °F 56.7 °F 29.9 in West 4 mph 8 mph 77% 0 in 0 W/m2
03:37 63.9 °F 56.5 °F 29.9 in West 4 mph 8 mph 77% 0 in 0 W/m2
03:42 63.9 °F 56.1 °F 29.9 in West 6.9 mph 9 mph 76% 0 in 0 W/m2
03:47 63.9 °F 56.1 °F 29.9 in West 12.1 mph 12 mph 76% 0 in 0 W/m2
03:52 63.9 °F 56.1 °F 29.9 in NW 4.9 mph 8 mph 76% 0 in 0 W/m2
03:57 63.7 °F 55.2 °F 29.9 in WNW 6.9 mph 9 mph 74% 0 in 0 W/m2
04:02 63.7 °F 55.2 °F 29.9 in NW 4 mph 8 mph 74% 0 in 0 W/m2
04:07 63.5 °F 55 °F 29.9 in West 6.9 mph 10 mph 74% 0 in 0 W/m2
04:12 63.3 °F 55.2 °F 29.9 in WNW 2 mph 4 mph 75% 0 in 0 W/m2
04:17 63.1 °F 55.4 °F 29.9 in WSW 0.9 mph 3 mph 76% 0 in 0 W/m2
04:22 62.8 °F 55.4 °F 29.9 in WNW 2.9 mph 4 mph 77% 0 in 0 W/m2
04:27 62.4 °F 55.4 °F 29.9 in West 4 mph 7 mph 78% 0 in 0 W/m2
04:32 62.1 °F 54.7 °F 29.9 in West 6.9 mph 10 mph 77% 0 in 0 W/m2
04:37 62.1 °F 54.3 °F 29.9 in WSW 4.9 mph 10 mph 76% 0 in 0 W/m2
04:43 62.1 °F 54.3 °F 29.9 in West 2.9 mph 4 mph 76% 0 in 0 W/m2
04:48 61.9 °F 54.3 °F 29.9 in West 2 mph 10 mph 76% 0 in 0 W/m2
04:53 61.9 °F 54.3 °F 29.9 in West 2 mph 4 mph 76% 0 in 0 W/m2
04:58 61.5 °F 54 °F 29.9 in West 0.9 mph 6 mph 76% 0 in 0 W/m2
05:03 61.3 °F 54.1 °F 29.9 in NW 0.9 mph 1 mph 77% 0 in 0 W/m2
05:08 61.2 °F 54.3 °F 29.9 in West 2 mph 2 mph 78% 0 in 0 W/m2
05:13 61 °F 54.5 °F 29.9 in West 2 mph 7 mph 79% 0 in 0 W/m2
05:18 60.8 °F 54.3 °F 29.9 in WNW 2.9 mph 5 mph 79% 0 in 0 W/m2
05:23 60.6 °F 54.5 °F 29.9 in WSW 0.9 mph 7 mph 80% 0 in 0 W/m2
05:28 60.4 °F 54.3 °F 29.9 in WSW 2 mph 2 mph 80% 0 in 0 W/m2
05:33 60.3 °F 54.3 °F 29.9 in WNW 2 mph 6 mph 81% 0 in 0 W/m2
05:38 60.1 °F 54.3 °F 29.9 in WNW 0.9 mph 3 mph 81% 0 in 0 W/m2
05:43 59.9 °F 54.1 °F 29.9 in West 2 mph 2 mph 81% 0 in 0 W/m2
05:48 59.7 °F 54 °F 29.9 in Calm   2 mph 81% 0 in 0 W/m2
05:53 59.5 °F 53.8 °F 29.9 in West 2 mph 3 mph 81% 0 in 0 W/m2
05:58 59.4 °F 53.8 °F 29.9 in Calm     82% 0 in 0 W/m2
06:03 59.2 °F 53.6 °F 29.9 in SE 0.9 mph 3 mph 82% 0 in 0 W/m2
06:08 59 °F 53.6 °F 29.9 in Calm   1 mph 82% 0 in 0 W/m2
06:13 58.8 °F 53.6 °F 29.9 in SW 0.9 mph 3 mph 83% 0 in 0 W/m2
06:18 58.8 °F 53.6 °F 29.9 in ENE 2 mph 2 mph 83% 0 in 0 W/m2
06:23 58.6 °F 53.4 °F 29.9 in Calm   2 mph 83% 0 in 0 W/m2
06:28 58.6 °F 53.8 °F 29.9 in Calm   1 mph 84% 0 in 0 W/m2
06:33 58.5 °F 53.6 °F 29.9 in Calm   1 mph 84% 0 in 0 W/m2
06:38 58.5 °F 53.6 °F 29.9 in Calm   1 mph 84% 0 in 5 W/m2
06:43 58.6 °F 53.8 °F 29.9 in West 0.9 mph 2 mph 84% 0 in 7 W/m2
06:48 58.6 °F 53.8 °F 29.9 in Calm   1 mph 84% 0 in 5 W/m2
06:53 58.6 °F 53.8 °F 29.9 in Calm   2 mph 84% 0 in 7 W/m2
06:58 58.8 °F 54 °F 29.9 in Calm   2 mph 84% 0 in 9 W/m2
07:03 59 °F 54.1 °F 29.9 in Calm   1 mph 84% 0 in 9 W/m2
07:08 59.2 °F 54.3 °F 29.9 in SW 0.9 mph 2 mph 84% 0 in 7 W/m2
07:13 59.2 °F 54.3 °F 29.9 in Calm   2 mph 84% 0 in 18 W/m2
07:18 59.4 °F 54.5 °F 29.9 in WNW 2.9 mph 3 mph 84% 0 in 16 W/m2
07:23 59.5 °F 54.3 °F 29.9 in NNW 0.9 mph 1 mph 83% 0 in 23 W/m2
07:28 59.5 °F 54.3 °F 29.9 in Calm   1 mph 83% 0 in 19 W/m2
07:33 59.7 °F 54.5 °F 29.9 in South 2 mph 2 mph 83% 0 in 23 W/m2
07:38 59.9 °F 54.7 °F 29.9 in NE 0.9 mph 4 mph 83% 0 in 26 W/m2
07:43 60.1 °F 54.9 °F 29.9 in NNW 2 mph 4 mph 83% 0 in 26 W/m2
07:48 60.3 °F 55 °F 29.9 in NNW 0.9 mph 3 mph 83% 0 in 32 W/m2
07:53 60.3 °F 55 °F 29.9 in Calm   4 mph 83% 0 in 39 W/m2
07:58 60.4 °F 55.2 °F 29.9 in Calm     83% 0 in 44 W/m2
08:03 60.4 °F 55.2 °F 29.9 in Calm   4 mph 83% 0 in 49 W/m2
08:08 60.6 °F 55 °F 29.9 in Calm   3 mph 82% 0 in 53 W/m2
08:13 60.6 °F 55 °F 29.9 in West 0.9 mph 4 mph 82% 0 in 67 W/m2
08:18 61 °F 55.4 °F 29.9 in WNW 2 mph 3 mph 82% 0 in 74 W/m2
08:23 61.2 °F 55.6 °F 29.9 in West 2.9 mph 3 mph 82% 0 in 88 W/m2
08:28 61.2 °F 55.6 °F 29.9 in WNW 0.9 mph 4 mph 82% 0 in 84 W/m2
08:33 61.3 °F 55.8 °F 29.9 in WSW 2.9 mph 4 mph 82% 0 in 98 W/m2
08:38 61.3 °F 55.8 °F 29.9 in NNW 2.9 mph 3 mph 82% 0 in 107 W/m2
08:43 61.5 °F 55.9 °F 29.9 in West 2 mph 3 mph 82% 0 in 123 W/m2
08:48 61.7 °F 55.8 °F 29.9 in WNW 2 mph 4 mph 81% 0 in 123 W/m2
08:53 61.9 °F 55.9 °F 29.9 in Calm   3 mph 81% 0 in 139 W/m2
08:58 62.2 °F 56.3 °F 29.9 in NW 0.9 mph 3 mph 81% 0 in 134 W/m2
09:03 62.4 °F 56.5 °F 29.9 in WSW 2.9 mph 4 mph 81% 0 in 125 W/m2
09:08 62.6 °F 56.3 °F 29.9 in WSW 2 mph 4 mph 80% 0 in 128 W/m2
09:13 62.8 °F 56.5 °F 29.9 in West 2 mph 7 mph 80% 0 in 121 W/m2
09:18 62.8 °F 56.5 °F 29.9 in Calm   5 mph 80% 0 in 90 W/m2
09:23 63 °F 56.7 °F 29.9 in WNW 2.9 mph 7 mph 80% 0 in 139 W/m2
09:28 63 °F 56.7 °F 29.9 in NW 2.9 mph 7 mph 80% 0 in 155 W/m2
09:33 63.1 °F 56.8 °F 29.9 in ENE 0.9 mph 3 mph 80% 0 in 107 W/m2
09:38 63.1 °F 56.8 °F 29.9 in WNW 0.9 mph 6 mph 80% 0 in 130 W/m2
09:43 63.1 °F 56.8 °F 29.9 in West 6 mph 9 mph 80% 0 in 130 W/m2
09:48 63.3 °F 57 °F 29.9 in ESE 8.1 mph 8 mph 80% 0 in 93 W/m2
09:53 63.3 °F 57 °F 29.9 in West 0.9 mph 4 mph 80% 0 in 97 W/m2
09:58 63.1 °F 57.6 °F 29.9 in WNW 8 mph 8 mph 82% 0 in 155 W/m2
10:03 63 °F 57.7 °F 29.9 in ENE 2 mph 4 mph 83% 0 in 176 W/m2
10:08 62.4 °F 57.6 °F 29.9 in ENE 4 mph 7 mph 84% 0 in 162 W/m2
10:13 62.2 °F 57.9 °F 29.9 in Calm   3 mph 86% 0 in 179 W/m2
10:18 62.1 °F 57.7 °F 29.9 in Calm   3 mph 86% 0 in 172 W/m2
10:23 62.1 °F 58.1 °F 29.9 in ESE 0.9 mph 2 mph 87% 0 in 169 W/m2
10:28 62.2 °F 57.9 °F 29.9 in Calm   2 mph 86% 0 in 163 W/m2
10:33 62.4 °F 58.5 °F 29.9 in SW 4 mph 4 mph 87% 0 in 172 W/m2
10:38 62.6 °F 58.3 °F 29.9 in ENE 2 mph 4 mph 86% 0 in 186 W/m2
10:43 62.8 °F 58.3 °F 29.9 in WNW 2 mph 4 mph 85% 0 in 218 W/m2
10:48 63 °F 58.5 °F 29.9 in West 0.9 mph 5 mph 85% 0 in 264 W/m2
10:53 63.1 °F 58.6 °F 29.9 in NNW 2 mph 7 mph 85% 0 in 315 W/m2
10:58 63.5 °F 58.8 °F 29.9 in North 2.9 mph 3 mph 85% 0 in 306 W/m2
11:03 63.9 °F 58.6 °F 29.9 in WNW 4 mph 7 mph 83% 0 in 218 W/m2
11:08 63.9 °F 58.6 °F 29.9 in Calm   11 mph 83% 0 in 188 W/m2
11:13 63.9 °F 59 °F 29.9 in WNW 4.9 mph 8 mph 84% 0 in 211 W/m2
11:18 63.9 °F 58.6 °F 29.9 in WSW 2.9 mph 11 mph 83% 0 in 121 W/m2
11:23 63.9 °F 58.6 °F 29.9 in NW 0.9 mph 4 mph 83% 0 in 218 W/m2
11:28 63.9 °F 58.6 °F 29.9 in ESE 0.9 mph 10 mph 83% 0 in 299 W/m2
11:33 63.9 °F 58.6 °F 29.9 in NW 2 mph 4 mph 83% 0 in 244 W/m2
11:38 64.2 °F 58.6 °F 29.9 in West 0.9 mph 5 mph 82% 0 in 313 W/m2
11:43 64.6 °F 58.6 °F 29.9 in NW 2 mph 7 mph 81% 0 in 443 W/m2
11:48 64.9 °F 58.6 °F 29.9 in West 4 mph 8 mph 80% 0 in 315 W/m2
11:53 65.1 °F 58.8 °F 29.9 in NNW 0.9 mph 12 mph 80% 0 in 343 W/m2
11:58 65.3 °F 59 °F 29.9 in WSW 11 mph 11 mph 80% 0 in 339 W/m2
12:03 65.5 °F 58.8 °F 29.9 in West 6 mph 7 mph 79% 0 in 359 W/m2
12:08 65.8 °F 59.2 °F 29.9 in WNW 2 mph 5 mph 79% 0 in 469 W/m2
12:13 66.7 °F 59.4 °F 29.9 in West 0.9 mph 10 mph 77% 0 in 417 W/m2
12:18 66.6 °F 58.8 °F 29.9 in WSW 4.9 mph 8 mph 76% 0 in 390 W/m2
12:23 66.6 °F 59.2 °F 29.9 in NW 2.9 mph 10 mph 77% 0 in 348 W/m2
12:28 66.6 °F 59.2 °F 29.9 in NW 8.1 mph 8 mph 77% 0 in 385 W/m2
12:33 66.7 °F 59 °F 29.9 in WNW 11 mph 11 mph 76% 0 in 425 W/m2
12:38 66.6 °F 58.5 °F 29.9 in North 2 mph 12 mph 75% 0 in 434 W/m2
12:43 66.6 °F 58.5 °F 29.9 in NW 0.9 mph 7 mph 75% 0 in 628 W/m2
12:48 66.9 °F 58.8 °F 29.9 in NW 2 mph 9 mph 75% 0 in 401 W/m2
12:53 67.5 °F 58.8 °F 29.9 in SW 2 mph 10 mph 74% 0 in 418 W/m2
12:58 67.6 °F 59.4 °F 29.9 in Calm   3 mph 75% 0 in 329 W/m2
13:03 67.8 °F 59.2 °F 29.9 in NNW 2.9 mph 10 mph 74% 0 in 436 W/m2
13:08 67.6 °F 58.6 °F 29.9 in SW 4.9 mph 8 mph 73% 0 in 464 W/m2
13:13 67.5 °F 58.5 °F 29.9 in West 2 mph 10 mph 73% 0 in 469 W/m2
13:18 67.3 °F 58.3 °F 29.9 in West 2.9 mph 8 mph 73% 0 in 359 W/m2
13:23 67.3 °F 58.3 °F 29.9 in West 0.9 mph 7 mph 73% 0 in 404 W/m2
13:28 67.3 °F 58.3 °F 29.9 in NW 2.9 mph 8 mph 73% 0 in 401 W/m2
13:33 67.8 °F 58.8 °F 29.9 in WNW 2 mph 5 mph 73% 0 in 476 W/m2
13:38 67.6 °F 58.6 °F 29.9 in SSW 4 mph 4 mph 73% 0 in 97 W/m2
13:43 66.7 °F 59.4 °F 29.9 in West 6 mph 11 mph 77% 0 in 137 W/m2
13:48 65.8 °F 59.5 °F 29.9 in West 2.9 mph 8 mph 80% 0 in 309 W/m2
13:53 65.3 °F 59.7 °F 29.9 in SW 2 mph 6 mph 82% 0 in 364 W/m2
13:58 65.1 °F 59.5 °F 29.9 in WNW 0.9 mph 7 mph 82% 0 in 455 W/m2
14:03 65.7 °F 60.1 °F 29.9 in West 4 mph 6 mph 82% 0 in 461 W/m2
14:08 66.2 °F 60.6 °F 29.9 in WNW 6 mph 9 mph 82% 0 in 499 W/m2
14:13 66.9 °F 59.9 °F 29.9 in West 6 mph 12 mph 78% 0 in 501 W/m2
14:18 67.3 °F 59.9 °F 29.9 in WNW 2 mph 11 mph 77% 0 in 476 W/m2
14:23 67.6 °F 59.4 °F 29.9 in NNW 4 mph 13 mph 75% 0 in 388 W/m2
14:28 67.6 °F 59 °F 29.9 in WNW 2.9 mph 11 mph 74% 0 in 116 W/m2
14:33 66.9 °F 59.2 °F 29.9 in WNW 11 mph 18 mph 76% 0 in 56 W/m2
14:38 65.3 °F 59 °F 29.9 in NW 2.9 mph 12 mph 80% 0.01 in 130 W/m2
14:44 64.2 °F 59 °F 29.9 in WNW 6.9 mph 10 mph 83% 0.01 in 223 W/m2
14:49 63.9 °F 59.5 °F 29.9 in WNW 4 mph 12 mph 86% 0.01 in 359 W/m2
14:54 64 °F 60.1 °F 29.9 in North 2.9 mph 9 mph 87% 0.01 in 397 W/m2
14:59 64.6 °F 60.3 °F 29.9 in West 4 mph 11 mph 86% 0.01 in 432 W/m2
15:04 65.1 °F 60.4 °F 29.9 in SSW 2 mph 7 mph 85% 0.01 in 489 W/m2
15:09 66.4 °F 61 °F 29.9 in WSW 8.9 mph 11 mph 83% 0.01 in 714 W/m2
15:14 67.5 °F 60.8 °F 29.9 in West 8.1 mph 10 mph 79% 0.01 in 870 W/m2
15:19 67.6 °F 59.7 °F 29.9 in WSW 8.1 mph 13 mph 76% 0.01 in 278 W/m2
15:24 67.5 °F 59.5 °F 29.9 in WNW 2 mph 12 mph 76% 0.01 in 376 W/m2
15:29 67.5 °F 59.2 °F 29.9 in West 6 mph 15 mph 75% 0.01 in 269 W/m2
15:34 67.5 °F 59.5 °F 29.9 in West 8.9 mph 10 mph 76% 0.01 in 190 W/m2
15:39 67.5 °F 59.2 °F 29.9 in West 6 mph 8 mph 75% 0 in 276 W/m2
15:44 67.5 °F 58.8 °F 29.9 in West 10.1 mph 10 mph 74% 0 in 204 W/m2
15:49 67.5 °F 58.8 °F 29.9 in West 8.1 mph 13 mph 74% 0 in 77 W/m2
15:54 66.7 °F 59.7 °F 29.9 in West 10.1 mph 14 mph 78% 0.02 in 42 W/m2
15:59 65.1 °F 59.5 °F 29.9 in West 6.9 mph 11 mph 82% 0.03 in 51 W/m2
16:04 64 °F 59.2 °F 29.9 in West 6 mph 6 mph 84% 0.04 in 160 W/m2
16:09 63.9 °F 59.9 °F 29.9 in West 2.9 mph 11 mph 87% 0.04 in 162 W/m2
16:14 63.7 °F 60.1 °F 29.9 in West 6.9 mph 10 mph 88% 0.04 in 49 W/m2
16:19 63.1 °F 59.2 °F 29.9 in WNW 8.1 mph 12 mph 87% 0.07 in 49 W/m2
16:24 61.5 °F 57.6 °F 30 in NW 11 mph 14 mph 87% 0.08 in 84 W/m2
16:29 61 °F 57.7 °F 30 in WNW 2.9 mph 13 mph 89% 0.09 in 95 W/m2
16:34 60.6 °F 57.7 °F 30 in West 4 mph 10 mph 90% 0.09 in 93 W/m2
16:39 60.6 °F 57.9 °F 30 in WSW 8.1 mph 11 mph 91% 0.09 in 204 W/m2
16:44 60.6 °F 57.9 °F 30 in West 2.9 mph 11 mph 91% 0.09 in 209 W/m2
16:49 61.2 °F 58.5 °F 29.9 in WNW 8.9 mph 9 mph 91% 0.09 in 278 W/m2
16:54 61.3 °F 58.5 °F 30 in NW 4.9 mph 13 mph 90% 0.07 in 255 W/m2
16:59 61.5 °F 58.6 °F 30 in West 6 mph 12 mph 90% 0.06 in 155 W/m2
17:04 61.5 °F 58.3 °F 30 in NW 6 mph 13 mph 89% 0.05 in 171 W/m2
17:09 61.7 °F 58.5 °F 30 in West 6 mph 13 mph 89% 0.05 in 197 W/m2
17:14 61.7 °F 58.5 °F 30 in NNW 8.9 mph 9 mph 89% 0.05 in 227 W/m2
17:19 61.9 °F 58.6 °F 30 in WNW 4 mph 11 mph 89% 0.02 in 144 W/m2
17:24 61.9 °F 58.3 °F 30 in WSW 8.1 mph 11 mph 88% 0.01 in 121 W/m2
17:29 62.1 °F 58.5 °F 30 in NW 2.9 mph 8 mph 88% 0 in 183 W/m2
17:34 62.2 °F 58.3 °F 30 in WNW 8.1 mph 11 mph 87% 0 in 151 W/m2
17:39 62.2 °F 58.3 °F 30 in WNW 8.1 mph 11 mph 87% 0 in 195 W/m2
17:44 62.4 °F 58.5 °F 30 in West 2 mph 7 mph 87% 0 in 262 W/m2
17:49 62.8 °F 58.5 °F 30 in WNW 2.9 mph 8 mph 86% 0 in 343 W/m2
17:54 63 °F 58.5 °F 30 in WSW 8.9 mph 9 mph 85% 0 in 130 W/m2
17:59 62.8 °F 58.5 °F 30 in West 2.9 mph 6 mph 86% 0 in 204 W/m2
18:04 63 °F 58.6 °F 30 in WNW 2 mph 9 mph 86% 0 in 185 W/m2
18:09 63.1 °F 58.3 °F 30 in West 2.9 mph 8 mph 84% 0 in 237 W/m2
18:14 63.3 °F 58.5 °F 30 in WNW 8.1 mph 8 mph 84% 0 in 142 W/m2
18:19 63.3 °F 57.7 °F 30 in West 4 mph 8 mph 82% 0 in 100 W/m2
18:24 63.1 °F 57.6 °F 30 in NW 2.9 mph 9 mph 82% 0 in 69 W/m2
18:29 63 °F 57.4 °F 30 in WNW 6.9 mph 9 mph 82% 0 in 91 W/m2
18:34 63 °F 57.7 °F 30 in WSW 2.9 mph 8 mph 83% 0 in 62 W/m2
18:39 63 °F 57.7 °F 30 in West 10.1 mph 10 mph 83% 0 in 97 W/m2
18:44 63 °F 57.4 °F 30 in NW 6 mph 9 mph 82% 0 in 134 W/m2
18:49 63.1 °F 56.8 °F 30 in WSW 4.9 mph 7 mph 80% 0 in 98 W/m2
18:54 63.3 °F 56.3 °F 30 in West 6.9 mph 10 mph 78% 0 in 84 W/m2
18:59 63.3 °F 54.9 °F 30 in West 8.1 mph 15 mph 74% 0 in 93 W/m2
19:04 63.1 °F 54.3 °F 30 in WSW 6.9 mph 13 mph 73% 0 in 86 W/m2
19:09 63.1 °F 54.3 °F 30 in West 6 mph 9 mph 73% 0 in 97 W/m2
19:14 63 °F 54.5 °F 30 in NW 10.1 mph 10 mph 74% 0 in 98 W/m2
19:19 63 °F 54.5 °F 30 in West 8.1 mph 9 mph 74% 0 in 74 W/m2
19:24 62.8 °F 54.3 °F 30 in West 6.9 mph 13 mph 74% 0 in 56 W/m2
19:29 62.8 °F 54.3 °F 30 in WNW 2.9 mph 11 mph 74% 0 in 40 W/m2
19:34 62.6 °F 54.5 °F 30 in WSW 4.9 mph 13 mph 75% 0 in 26 W/m2
19:39 62.6 °F 54.1 °F 30 in West 2.9 mph 8 mph 74% 0 in 25 W/m2
19:44 62.4 °F 54.3 °F 30 in WSW 4.9 mph 13 mph 75% 0 in 26 W/m2
19:49 62.2 °F 54.5 °F 30 in WSW 2 mph 6 mph 76% 0 in 32 W/m2
19:54 62.1 °F 54.3 °F 30 in WNW 2 mph 8 mph 76% 0 in 26 W/m2
19:59 61.9 °F 54.7 °F 30 in West 2.9 mph 8 mph 77% 0 in 21 W/m2
20:04 61.7 °F 54.5 °F 30 in West 4 mph 7 mph 77% 0 in 18 W/m2
20:09 61.5 °F 54.7 °F 30 in WSW 4 mph 8 mph 78% 0 in 14 W/m2
20:14 61.5 °F 54.3 °F 30 in WSW 4.9 mph 8 mph 77% 0 in 9 W/m2
20:19 61.5 °F 53.2 °F 30 in West 6.9 mph 11 mph 74% 0 in 9 W/m2
20:24 61.9 °F 53.1 °F 30 in NW 8.1 mph 9 mph 73% 0 in 12 W/m2
20:29 61.7 °F 52.9 °F 30 in NW 4 mph 8 mph 73% 0 in 5 W/m2
20:34 61.5 °F 52.7 °F 30 in West 4 mph 8 mph 73% 0 in 0 W/m2
20:39 61.3 °F 52.7 °F 30 in West 4 mph 7 mph 73% 0 in 0 W/m2
20:44 61.3 °F 52.2 °F 30 in West 2 mph 7 mph 72% 0 in 0 W/m2
20:49 61.2 °F 52 °F 30 in West 6 mph 8 mph 72% 0 in 0 W/m2
20:54 61.2 °F 52 °F 30 in WSW 2 mph 5 mph 72% 0 in 0 W/m2
20:59 61 °F 52 °F 30 in West 2.9 mph 9 mph 72% 0 in 0 W/m2
21:04 60.6 °F 51.6 °F 30 in WNW 6.9 mph 8 mph 72% 0 in 0 W/m2
21:09 60.8 °F 51.8 °F 30.1 in WNW 0.9 mph 9 mph 72% 0 in 0 W/m2
21:14 60.8 °F 51.8 °F 30.1 in SW 6 mph 7 mph 72% 0 in 0 W/m2
21:19 60.6 °F 52 °F 30.1 in WSW 4.9 mph 5 mph 73% 0 in 0 W/m2
21:24 60.6 °F 52 °F 30.1 in NW 4 mph 7 mph 73% 0 in 0 W/m2
21:29 60.4 °F 51.8 °F 30.1 in NNW 4 mph 12 mph 73% 0 in 0 W/m2
21:34 60.4 °F 51.8 °F 30.1 in NW 6 mph 7 mph 73% 0 in 0 W/m2
21:39 60.3 °F 52 °F 30.1 in WNW 8.1 mph 10 mph 74% 0 in 0 W/m2
21:44 60.3 °F 52.3 °F 30.1 in WNW 8.1 mph 8 mph 75% 0 in 0 W/m2
21:49 60.1 °F 52.5 °F 30.1 in West 10.1 mph 11 mph 76% 0 in 0 W/m2
21:54 59.5 °F 52.7 °F 30.1 in West 4 mph 10 mph 78% 0 in 0 W/m2
21:59 59.2 °F 53.1 °F 30.1 in WNW 2.9 mph 4 mph 80% 0 in 0 W/m2
22:04 59 °F 53.2 °F 30.1 in SW 4 mph 5 mph 81% 0 in 0 W/m2
22:09 58.6 °F 53.2 °F 30.1 in NNW 8.1 mph 10 mph 82% 0 in 0 W/m2
22:14 58.5 °F 53.1 °F 30.1 in NNW 4 mph 10 mph 82% 0 in 0 W/m2
22:19 58.3 °F 53.4 °F 30.1 in NW 2.9 mph 9 mph 84% 0 in 0 W/m2
22:24 57.9 °F 53.4 °F 30.1 in WSW 4 mph 6 mph 85% 0 in 0 W/m2
22:29 57.7 °F 53.6 °F 30.1 in WSW 2.9 mph 6 mph 86% 0 in 0 W/m2
22:34 57.6 °F 53.8 °F 30.1 in WSW 2 mph 6 mph 87% 0 in 0 W/m2
22:39 57.4 °F 53.6 °F 30.1 in West 2.9 mph 4 mph 87% 0 in 0 W/m2
22:44 57.4 °F 53.8 °F 30.1 in WNW 0.9 mph 3 mph 88% 0 in 0 W/m2
22:49 57.2 °F 53.6 °F 30.1 in WNW 4 mph 4 mph 88% 0 in 0 W/m2
22:54 57.2 °F 53.6 °F 30.1 in West 2.9 mph 3 mph 88% 0 in 0 W/m2
22:59 57 °F 53.4 °F 30.1 in Calm   2 mph 88% 0 in 0 W/m2
23:04 57 °F 53.4 °F 30.1 in West 0.9 mph 2 mph 88% 0 in 0 W/m2
23:09 56.8 °F 53.6 °F 30.1 in WSW 2 mph 4 mph 89% 0 in 0 W/m2
23:14 56.8 °F 53.6 °F 30.1 in WNW 2.9 mph 4 mph 89% 0 in 0 W/m2
23:19 56.7 °F 53.4 °F 30.1 in SW 2.9 mph 4 mph 89% 0 in 0 W/m2
23:24 56.7 °F 53.4 °F 30.1 in WNW 0.9 mph 3 mph 89% 0 in 0 W/m2
23:30 56.7 °F 53.4 °F 30.1 in Calm   3 mph 89% 0 in 0 W/m2
23:35 56.7 °F 53.4 °F 30.1 in West 2 mph 3 mph 89% 0 in 0 W/m2
23:40 56.7 °F 53.1 °F 30.1 in WSW 4.9 mph 6 mph 88% 0 in 0 W/m2
23:45 56.7 °F 52.5 °F 30.1 in WSW 2.9 mph 8 mph 86% 0 in 0 W/m2
23:50 56.7 °F 52.5 °F 30.1 in WNW 2 mph 5 mph 86% 0 in 0 W/m2
23:55 56.7 °F 52.5 °F 30.1 in West 2.9 mph 4 mph 86% 0 in 0 W/m2
Juneau County Weather
Compliments of Weather Underground - 4 mb